• MPC Preparation (Info)

  • MPEC 2004-F63 : 2004 FJ11

    The following Minor Planet Electronic Circular may be linked-to from your own Web pages, but must not otherwise be redistributed electronically.

    A form allowing access to any MPEC is at the bottom of this page.


    Read MPEC 2004-F62 Read MPEC 2004-F64


    M.P.E.C. 2004-F63                                Issued 2004 Mar. 26, 08:40 UT
    
         The Minor Planet Electronic Circulars contain information on unusual
             minor planets and routine data on comets.  They are published
       on behalf of Commission 20 of the International Astronomical Union by the
              Minor Planet Center, Smithsonian Astrophysical Observatory,
                              Cambridge, MA 02138, U.S.A.
    
             Supported in part by the Steven and Michele Kirsch Foundation
                 Prepared using the Tamkin Foundation Computer Network
    
                                  MPC@CFA.HARVARD.EDU
              URL http://cfa-www.harvard.edu/iau/mpc.html  ISSN 1523-6714
    
                                       2004 FJ11
    
    Observations:
         K04F11J  C2004 03 15.30187 12 01 27.73 +04 09 27.2          19.3 V EF063703
         K04F11J  C2004 03 15.31554 12 01 27.07 +04 09 28.8          19.7 V EF063703
         K04F11J  C2004 03 15.32250 12 01 26.78 +04 09 30.7          20.0   EF063704
         K04F11J  C2004 03 15.32919 12 01 26.47 +04 09 31.5          20.1 V EF063703
         K04F11J  C2004 03 15.33318 12 01 26.16 +04 09 32.4          19.9   EF063704
         K04F11J  C2004 03 15.34293 12 01 25.61 +04 09 35.7          19.2 V EF063703
         K04F11J  C2004 03 15.34393 12 01 25.63 +04 09 35.1          19.9   EF063704
         K04F11J  C2004 03 15.35496 12 01 25.00 +04 09 37.5          20.0   EF063704
         K04F11J  C2004 03 17.20979 11 59 53.93 +04 16 04.1          19.7 V EF063691
         K04F11J  C2004 03 17.23973 11 59 52.16 +04 16 10.8          19.6 V EF063691
         K04F11J  C2004 03 17.26878 11 59 50.41 +04 16 17.1          19.7 V EF063691
         K04F11J  C2004 03 19.33533 11 57 55.90 +04 23 43.5          19.2   EF063704
         K04F11J  C2004 03 19.34602 11 57 55.17 +04 23 46.2          19.2   EF063704
         K04F11J  C2004 03 19.35705 11 57 54.41 +04 23 48.7          19.4   EF063704
         K04F11J  C2004 03 19.36823 11 57 53.71 +04 23 50.8          19.2   EF063704
         K04F11J  C2004 03 19.37904 11 57 52.99 +04 23 53.4          19.2   EF063704
         K04F11J  C2004 03 22.34129 11 54 50.21 +04 34 47.0          19.4   EF063704
         K04F11J  C2004 03 22.35209 11 54 49.41 +04 34 49.9          19.7   EF063704
         K04F11J  C2004 03 22.36284 11 54 48.60 +04 34 51.5          19.5   EF063704
         K04F11J  C2004 03 22.37383 11 54 47.84 +04 34 54.3          19.5   EF063704
         K04F11J  C2004 03 22.38474 11 54 47.02 +04 34 57.2          19.7   EF063704
         K04F11J* C2004 03 25.27469 11 51 27.71 +04 45 28.7          18.9   EF063704
         K04F11J  C2004 03 25.28520 11 51 26.83 +04 45 31.6          19.0   EF063704
         K04F11J  C2004 03 25.29580 11 51 25.93 +04 45 34.2          19.3   EF063704
         K04F11J  C2004 03 25.92232 11 50 40.54 +04 47 38.5          18.6 R EF063J95
         K04F11J  C2004 03 25.92812 11 50 40.02 +04 47 39.8                 EF063J95
         K04F11J  C2004 03 25.93395 11 50 39.56 +04 47 43.0                 EF063J95
         K04F11J  C2004 03 25.98946 11 50 34.98 +04 47 53.3          19.1 R EF063J95
         K04F11J  C2004 03 26.00178 11 50 33.94 +04 47 56.7          19.2 R EF063J95
         K04F11J  C2004 03 26.25364 11 50 15.66 +04 48 57.5          19.0 R EF063854
         K04F11J  C2004 03 26.26027 11 50 15.06 +04 48 58.4          19.0 R EF063854
         K04F11J  C2004 03 26.26693 11 50 14.52 +04 49 00.0          19.1 R EF063854
    
    Observer details:
    691 Steward Observatory, Kitt Peak.  Observer A. F. Tubbiolo.  0.9-m f/3
        reflector + CCD.
    703 Catalina Sky Survey.  Observers S. Larson, E. Beshore, E. Christensen,
        R. Hill, S. Kolar, D. McLean.  0.68-m f/1.8 Schmidt + CCD.
    704 Lincoln Laboratory ETS, New Mexico.  Observers M. Blythe, F. Shelly,
        M. Bezpalko, R. Huber, L. Manguso, D. Torres, R. Kracke, M. McCleary,
        H. Stange, A. Milner.  Measurers J. Stuart, R. Sayer, J. Evans, J. Kommers.
        1.0-m f/2.15 reflector + CCD.
    854 Sabino Canyon Observatory, Tucson.  Observer J. E. McGaha.  0.356-m f/10.0
        Schmidt-Cassegrain + CCD.
    J95 Great Shefford.  Observer P. Birtwhistle.  0.30-m f/6.3 Schmidt-Cassegrain
        + CCD.
    
    Orbital elements:
    2004 FJ11                                                            PHA 0.026
    Epoch 2004 Mar. 16.0 TT = JDT 2453080.5                 MPC
    M 337.16155              (2000.0)            P               Q
    n   0.29517649     Peri.  230.43049     -0.29357454     +0.95579758
    a   2.2339916      Node    22.51343     -0.86350312     -0.25784407
    e   0.5566169      Incl.    2.43655     -0.41009310     -0.14130615
    P   3.34           H   20.7           G   0.15
    From 31 observations 2004 Mar. 15-26.
    
    Ephemeris:
    2004 FJ11                a,e,i = 2.23, 0.56, 2                   q = 0.9905
    Date    TT    R. A. (2000) Decl.     Delta      r     Elong.  Phase     V
    2004 03 26    11 50.57   +04 48.3    0.297    1.291   169.7     7.9    19.2
    2004 04 05    11 36.34   +05 15.8    0.236    1.221   156.9    18.8    19.0
    2004 04 15    11 18.85   +05 12.0    0.184    1.156   143.2    31.3    18.7
    2004 04 25    10 58.05   +04 02.6    0.138    1.098   129.1    45.3    18.3
    2004 05 05    10 29.74   +00 36.6    0.095    1.050   113.9    61.4    17.9
    2004 05 15    09 28.99   -09 03.9    0.055    1.015    93.1    83.8    17.4
    
    2004 05 17    09 05.03   -12 46.4    0.048    1.010    87.0    90.3    17.3
    2004 05 19    08 32.46   -17 25.6    0.042    1.005    79.9    97.8    17.3
    2004 05 21    07 47.70   -22 54.6    0.037    1.001    71.8   106.2    17.5
    2004 05 23    06 48.02   -28 24.6    0.034    0.998    63.6   114.7    17.8
    2004 05 25    05 36.45   -32 19.1    0.034    0.995    57.3   121.1    18.3
    2004 05 27    04 24.80   -33 28.3    0.036    0.993    54.8   123.5    18.6
    2004 05 29    03 25.03   -32 22.2    0.040    0.991    55.8   122.2    18.7
    2004 05 31    02 40.39   -30 15.4    0.046    0.991    58.7   119.0    18.8
    2004 06 02    02 08.24   -27 59.0    0.053    0.991    62.3   115.0    18.8
    2004 06 04    01 44.97   -25 53.6    0.061    0.991    65.8   111.0    18.8
    
    2004 06 14    00 50.23   -19 05.3    0.102    1.004    80.4    93.8    19.1
    2004 06 24    00 29.95   -15 46.4    0.143    1.032    92.2    79.8    19.3
    2004 07 04    00 17.21   -14 00.9    0.182    1.074   103.6    66.9    19.5
    2004 07 14    00 04.73   -13 11.8    0.218    1.127   115.4    54.5    19.6
    2004 07 24    23 49.67   -13 03.1    0.253    1.189   128.2    42.2    19.7
    2004 08 03    23 31.94   -13 18.3    0.292    1.257   141.7    30.0    19.8
    2004 08 13    23 12.98   -13 41.8    0.339    1.329   155.4    18.5    19.9
    2004 08 23    22 55.12   -14 00.1    0.399    1.404   168.4     8.3    20.0
    2004 09 02    22 40.61   -14 04.1    0.474    1.481   173.7     4.3    20.3
    2004 09 12    22 30.54   -13 52.1    0.565    1.558   164.1    10.2    21.1
    2004 09 22    22 25.12   -13 25.2    0.673    1.635   153.7    15.8    21.8
    2004 10 02    22 23.92   -12 45.5    0.797    1.711   143.9    20.1    22.4
    
    Kyle E. Smalley              (C) Copyright 2004 MPC           M.P.E.C. 2004-F63
    

    Read MPEC 2004-F62 Read MPEC 2004-F64


    MPEC number:

    Enter an MPEC number in one of the following forms:

    • 1997-B01 (the full form)
    • J97B01 (the packed version of the full form)
    • B01 (the abbreviated form)